Погода в Бенче

Вьетнам     10°14′16″N   106°22′34″E
темп.,
°C
ветер,
м/с
пор.,
м/с
влажн.,
%
обл.,
%
осадки,
мм/ч
давл.,
гПа
погр.,
м
17 августа, ср
ср1701:00+24юз129499 0.0 100861
04:00+24юз2495100 0.0 1008121
07:00+25юз259097 0.0 1009208
10:00+31юз366394 0.0 10101294
13:00+32зюз3559100 0.0 10071635
16:00+29зюз2577100 1.3 1006552
19:00+25зюз26915 2.8 1007138
22:00+25юз29955 0.0 1010306
18 августа, чт
чт1801:00+24зюз21095100 0.0 1008342
04:00+24зюз289898 0.1 1007262
07:00+25зюз2893100 0.1 1009323
10:00+31з35656 0.0 10091190
13:00+31з356698 1.8 10071209
16:00+29з2577100 3.3 1005536
19:00+26юз2891100 4.1 1006202
22:00+25зюз2893100 0.0 1008251
19 августа, пт
пт1901:00+25юз2995100 0.0 1007330
04:00+24зюз2997100 0.0 1005315
07:00+25зюз2993100 0.0 1007339
10:00+29зюз3673100 0.0 1008937
13:00+32з466299 0.4 10051411
16:00+29зюз4778100 2.1 1004669
19:00+26зюз31088100 2.4 1005350
22:00+26зюз21091100 0.6 1007438
20 августа, сб
сб2001:00+25зюз21095100 0.6 1006491
04:00+25зюз21097100 0.3 1006437
07:00+25юз21094100 0.3 1007549
10:00+31з4765100 0.0 10071367
13:00+31зюз4770100 2.3 10041266
16:00+29зюз4875100 1.2 1004879
19:00+26зюз31186100 1.5 1005459
22:00+26зюз31189100 0.0 1007555
21 августа, вс
вс2101:00+25зюз31092100 0.0 1005470
04:00+25юз21094100 0.1 1005385
07:00+26зюз31087100 0.1 1006758
10:00+30зюз4869100 0.0 10071356
13:00+30зюз4770100 0.8 10051189
16:00+30юз4872100 1.8 10041046
19:00+26юз2985100 1.8 1006286
22:00+25юз2891100 0.0 1008274